Location: �bnet
(46.9957°N, 8.4908°E)
Time: 08:52:17
(UTC+00:00)

SPOT 3 Rocket - Pass Details

Date: 11 May 2021
Orbit: 779 x 794 km, 98.7° (Epoch: 14 June)

Event Time Altitude Azimuth Distance (km) Brightness Sun altitude
Exits shadow 19:56:53 - 161° (SSE) 2,430 5.6 -10.2°
Reaches altitude 10° 19:57:07 10° 161° (SSE) 2,333 5.5 -10.2°
Maximum altitude 20:02:16 84° 75° (ENE) 792 3.5 -10.9°
Drops below altitude 10° 20:07:27 10° 347° (NNW) 2,344 6.9 -11.6°
Sets 20:09:46 0° 347° (NNW) 3,276 7.8 -11.8°
